Wind_Speed
8 8 9 9 9 9 9 9 9 9 9 9 10 10 9 9 8 8 9 8 8 8 8 7 7 7 7 6 6 6 5 5 4 4 3 3 4 5 6 7 8 9 10
7 7 7 8 9 9 8 8 8 9 9 9 9 9 9 8 8 8 8 8 7 7 7 6 6 6 6 5 5 4 4 3 3 2 2 3 3 4 5 7 8 9 10
6 6 7 7 8 8 8 8 8 8 8 8 8 8 7 8 8 8 8 7 7 6 6 6 5 5 5 4 4 3 3 2 1 0 1 2 3 4 5 6 8 9 10
5 5 6 6 7 7 7 7 7 7 7 7 7 7 7 7 7 7 7 7 6 6 6 5 5 4 4 4 3 3 2 1 1 1 2 3 4 5 6 7 8 10 11
5 5 6 6 6 6 6 6 6 7 7 7 7 7 6 6 6 7 7 6 6 5 5 5 4 4 4 3 3 3 2 2 2 2 3 4 5 6 7 8 9 10 11
4 5 6 6 6 5 5 6 6 6 6 6 6 6 6 6 6 6 6 6 6 5 5 4 4 4 4 4 4 4 4 4 4 4 4 5 6 7 8 9 10 10 11
4 4 5 5 5 5 6 6 6 6 6 6 6 6 6 6 6 6 6 6 6 6 6 5 5 5 5 5 5 5 5 5 5 6 6 6 7 8 9 10 11 11 12
5 5 5 5 5 5 6 6 6 6 6 6 6 7 7 6 6 6 6 6 7 7 7 7 6 6 7 7 7 7 7 7 8 8 8 8 9 10 11 11 12 13 14
5 5 5 5 6 5 5 6 6 6 6 6 6 7 7 7 7 7 6 7 7 7 8 8 8 8 8 9 9 9 9 9 10 10 10 10 11 12 12 13 14 15 15
7 6 6 6 6 6 6 6 6 7 7 7 7 7 7 7 7 7 7 7 8 8 9 9 9 10 10 10 11 11 11 11 11 12 12 13 13 14 15 15 16 17 17
9 8 7 7 7 7 7 7 7 7 8 8 8 8 8 8 8 9 9 9 9 9 10 10 11 11 12 12 12 13 13 13 13 14 14 15 16 16 17 18 18 19 19
11 10 9 9 8 8 8 8 8 8 8 8 8 8 8 8 9 9 10 10 10 10 11 12 12 13 13 13 14 14 15 15 16 16 17 17 18 19 19 20 20 21 22
13 12 12 11 11 10 10 9 9 9 9 9 9 10 9 9 10 10 11 11 11 12 12 13 13 14 14 15 15 16 17 17 18 18 19 19 20 21 21 22 22 23 23
16 15 14 13 13 12 12 11 11 11 11 11 11 11 11 11 11 12 12 13 13 13 14 14 15 15 16 17 17 18 18 19 19 20 21 22 22 23 23 24 24 24 25
18 18 16 15 15 15 14 14 13 13 13 13 14 14 14 14 14 14 14 14 15 15 16 17 17 18 18 19 19 19 20 20 21 22 23 23 24 25 25 26 26 26 27
21 20 19 18 18 17 17 16 16 15 15 15 15 16 16 16 17 17 17 17 17 17 18 18 19 20 20 21 21 21 22 23 24 24 25 25 26 26 27 27 28 28 28
23 22 22 21 20 20 20 19 19 18 18 18 18 18 18 18 19 19 19 19 20 20 20 21 21 22 22 23 24 24 25 25 26 27 27 28 28 29 29 29 30 30 30
26 25 25 24 23 23 23 22 22 22 21 21 21 21 21 21 21 22 22 23 23 23 24 24 24 24 25 26 26 27 27 28 28 29 30 30 31 31 32 32 32 32 33
30 29 28 27 27 27 26 26 25 25 24 25 25 25 25 25 25 25 25 26 26 27 27 27 27 28 28 29 29 29 30 31 31 32 33 33 33 34 34 35 35 35 35
34 32 32 31 31 31 30 29 29 28 28 28 28 28 28 28 28 28 29 29 29 29 30 30 31 31 31 32 32 32 32 33 34 35 35 36 36 37 37 38 38 38 38
37 36 36 35 35 35 34 33 33 32 32 32 32 32 31 31 32 32 32 32 33 33 33 34 34 35 35 35 35 36 36 36 36 37 38 39 39 40 40 40 40 40 41
40 39 39 39 39 38 38 37 37 37 36 35 35 35 35 35 36 36 36 36 36 36 37 37 38 38 38 39 39 39 39 39 39 40 40 41 42 42 43 43 43 43 43
43 42 42 41 41 41 41 40 40 39 39 38 38 38 39 39 40 39 39 40 40 40 40 41 41 41 42 42 42 43 43 42 42 42 43 44 44 45 45 45 46 46 47
45 45 44 44 43 43 43 43 42 41 41 41 42 42 43 43 43 43 43 43 43 44 44 44 45 45 45 45 46 46 47 47 47 46 45 46 46 47 48 48 48 49 49
49 48 47 47 47 46 46 46 45 45 44 44 45 45 45 46 46 46 46 46 47 47 47 48 48 48 48 49 49 49 50 50 51 51 50 49 50 50 51 51 52 52 53
53 52 51 51 50 50 50 50 49 48 47 48 48 48 48 49 49 49 49 50 50 50 50 50 51 51 51 51 52 52 53 53 54 54 54 54 54 53 53 53 54 54 54
Wind_Direction
105 108 111 115 117 120 123 128 129 128 129 131 131 129 124 124 125 127 127 126 124 124 125 125 127 127 126 125 125 126 123 117 112 102 85 67 49 36 29 23 19 16 14
110 112 115 119 122 124 124 127 129 130 133 137 137 135 132 130 132 134 135 134 132 131 133 133 134 135 134 131 131 132 128 124 117 105 66 42 28 20 15 10 8 7 5
118 118 120 124 129 131 129 129 129 131 135 140 142 140 139 139 140 142 144 144 142 141 142 141 144 147 146 142 141 143 141 138 133 94 13 6 3 1 358 355 355 356 357
127 131 130 132 137 142 140 139 138 138 141 145 148 147 144 144 147 152 155 154 152 151 152 153 155 160 159 161 165 169 174 185 227 295 319 332 338 340 341 342 344 347 349
136 143 145 145 146 149 152 152 150 150 151 153 155 157 156 156 158 161 166 167 166 165 167 170 172 177 182 191 198 206 216 233 260 287 300 311 320 325 329 333 336 339 341
152 154 156 159 161 164 166 166 165 165 163 162 165 167 168 167 169 172 176 179 181 185 188 192 198 204 211 221 229 236 243 252 264 279 289 298 306 313 319 325 330 331 332
175 172 170 169 175 179 181 180 180 181 179 176 177 179 181 181 182 186 190 195 199 203 207 213 221 226 231 239 244 247 251 257 265 274 282 291 298 305 312 318 321 324 325
194 190 190 187 186 192 196 195 194 193 192 192 191 192 192 193 195 199 205 210 214 218 222 227 235 240 244 248 250 252 255 260 266 274 282 288 293 299 305 310 315 318 320
215 207 205 203 200 200 202 203 204 203 201 202 202 201 202 204 207 210 214 220 224 229 232 238 244 249 252 254 256 257 260 264 268 274 280 286 290 294 300 305 309 312 315
225 222 218 217 215 214 213 212 214 214 213 213 213 214 215 217 219 222 225 229 233 236 240 244 247 251 255 258 260 262 265 267 271 275 281 286 290 294 298 301 305 308 311
229 228 226 225 224 225 225 223 224 225 225 224 224 225 225 226 228 230 234 239 242 244 247 250 252 255 259 262 264 266 268 270 273 277 281 286 290 294 297 300 303 306 308
233 232 230 232 230 230 231 230 231 231 230 231 232 233 234 236 237 238 241 246 250 252 253 255 258 261 263 265 267 268 270 272 275 279 282 286 289 293 296 298 301 304 306
234 235 235 236 236 236 236 236 236 237 236 236 238 240 243 244 246 248 248 251 254 257 259 260 263 265 268 269 271 272 273 275 278 280 284 287 290 292 295 297 300 302 305
236 236 237 239 240 240 241 241 242 243 243 244 246 247 249 250 252 253 255 256 259 261 262 265 266 269 271 272 273 275 277 278 280 283 286 288 290 292 294 296 298 300 302
239 239 238 239 241 243 245 246 247 246 246 247 250 251 253 254 256 257 258 260 263 265 267 268 268 269 271 273 275 276 278 279 281 283 285 288 290 292 294 296 298 299 301
241 241 242 242 243 244 246 249 251 253 253 253 253 254 256 257 258 260 261 262 264 267 269 271 272 272 272 273 275 276 278 279 281 282 284 286 288 290 292 295 297 298 299
242 243 244 245 246 246 248 250 252 254 257 258 258 258 258 260 261 263 264 265 267 269 270 271 272 273 274 274 275 276 278 279 280 282 284 285 287 289 291 293 294 295 296
243 244 246 247 249 250 251 252 253 255 257 259 260 262 262 262 263 265 266 267 269 270 271 273 273 274 275 275 276 277 278 280 281 282 284 285 287 288 289 291 292 293 294
246 247 248 248 250 253 254 255 256 257 258 260 261 262 263 264 264 265 267 268 270 271 272 273 273 274 275 276 277 278 279 280 281 283 284 285 286 287 288 289 290 291 292
247 249 251 251 252 254 256 257 257 258 259 260 261 262 263 264 265 266 267 269 270 272 272 273 274 275 276 276 277 278 279 280 281 282 283 285 286 286 287 288 289 289 290
248 250 252 253 254 255 256 257 258 259 259 260 262 264 265 266 267 267 268 269 270 272 273 273 274 275 275 276 277 277 278 279 280 282 283 284 284 285 286 287 288 288 289
250 251 252 254 255 256 256 257 258 260 261 262 263 265 265 266 267 268 269 270 271 272 273 274 274 275 276 276 277 278 278 278 279 281 282 283 284 285 285 286 287 288 288
251 253 254 255 256 257 257 258 259 260 261 262 263 263 264 265 267 268 269 270 271 272 273 274 274 275 275 276 277 278 278 278 278 279 281 282 283 284 285 285 286 287 287
252 252 253 255 256 257 258 259 260 261 262 262 262 263 264 265 267 268 269 270 271 273 273 274 274 275 275 276 277 277 278 279 279 279 279 280 281 282 284 284 285 286 287
252 253 254 255 256 258 259 260 261 262 262 262 263 264 265 266 267 269 270 271 272 272 273 274 274 275 276 276 277 278 278 279 280 280 279 280 280 281 282 283 284 285 286
252 253 254 256 257 258 260 261 262 262 263 263 264 265 265 267 268 269 270 271 272 272 273 273 274 275 276 277 277 278 279 280 280 280 280 280 281 281 282 283 284 285 285
Height
5872 5871 5871 5871 5871 5872 5872 5872 5872 5872 5872 5872 5872 5872 5873 5873 5873 5873 5874 5874 5875 5875 5875 5875 5876 5876 5876 5876 5876 5876 5876 5876 5876 5875 5875 5874 5874 5873 5872 5871 5869 5868 5866
5873 5872 5872 5872 5872 5872 5873 5873 5873 5873 5873 5873 5873 5873 5873 5873 5874 5874 5874 5875 5875 5876 5876 5876 5876 5877 5877 5877 5877 5877 5877 5876 5876 5876 5875 5874 5874 5873 5872 5870 5869 5868 5866
5873 5873 5872 5873 5873 5873 5873 5873 5873 5873 5873 5873 5874 5874 5874 5874 5874 5875 5875 5875 5876 5876 5876 5877 5877 5877 5877 5877 5877 5877 5877 5876 5876 5876 5875 5874 5873 5872 5871 5870 5869 5867 5866
5873 5873 5873 5873 5873 5873 5874 5874 5874 5874 5874 5874 5874 5874 5874 5874 5875 5875 5875 5876 5876 5876 5876 5877 5877 5877 5877 5877 5877 5877 5877 5876 5876 5875 5875 5874 5873 5872 5871 5870 5868 5867 5865
5873 5873 5873 5873 5873 5874 5874 5874 5874 5874 5874 5874 5874 5874 5874 5875 5875 5875 5875 5876 5876 5876 5877 5877 5877 5877 5877 5877 5877 5876 5876 5876 5875 5875 5874 5873 5872 5871 5870 5869 5867 5866 5864
5873 5873 5873 5873 5873 5874 5874 5874 5874 5874 5874 5874 5874 5874 5874 5875 5875 5875 5875 5876 5876 5876 5876 5877 5877 5877 5877 5877 5876 5876 5876 5875 5875 5874 5873 5872 5871 5870 5869 5868 5866 5865 5863
5873 5873 5873 5873 5873 5873 5873 5874 5874 5874 5874 5874 5874 5874 5874 5875 5875 5875 5875 5875 5876 5876 5876 5876 5876 5876 5876 5876 5876 5875 5875 5874 5874 5873 5872 5871 5870 5869 5868 5867 5865 5863 5862
5872 5872 5872 5872 5872 5873 5873 5873 5873 5873 5873 5873 5874 5874 5874 5874 5874 5875 5875 5875 5875 5875 5875 5875 5875 5875 5875 5875 5875 5874 5874 5873 5872 5872 5871 5870 5869 5868 5866 5865 5863 5862 5860
5871 5871 5871 5871 5871 5872 5872 5872 5872 5872 5873 5873 5873 5873 5873 5873 5874 5874 5874 5874 5874 5874 5874 5874 5874 5874 5874 5874 5873 5873 5872 5872 5871 5870 5869 5868 5867 5866 5865 5863 5862 5860 5858
5870 5870 5870 5870 5870 5870 5871 5871 5871 5871 5871 5872 5872 5872 5872 5872 5872 5873 5873 5873 5873 5873 5873 5873 5873 5873 5872 5872 5872 5871 5871 5870 5869 5868 5867 5866 5865 5864 5863 5861 5859 5858 5856
5868 5868 5868 5869 5869 5869 5869 5870 5870 5870 5870 5870 5871 5871 5871 5871 5871 5871 5871 5871 5871 5871 5871 5871 5871 5871 5870 5870 5870 5869 5868 5868 5867 5866 5865 5864 5863 5862 5860 5859 5857 5855 5853
5866 5866 5867 5867 5867 5867 5868 5868 5868 5868 5869 5869 5869 5869 5870 5870 5870 5870 5870 5870 5870 5870 5869 5869 5869 5869 5868 5868 5867 5867 5866 5865 5864 5863 5863 5861 5860 5859 5857 5856 5854 5852 5850
5863 5864 5864 5865 5865 5866 5866 5866 5866 5867 5867 5867 5867 5868 5868 5868 5868 5868 5868 5868 5867 5867 5867 5867 5867 5866 5866 5865 5864 5864 5863 5862 5861 5861 5860 5858 5857 5855 5854 5852 5850 5848 5846
5860 5861 5862 5862 5863 5863 5864 5864 5864 5864 5865 5865 5865 5865 5866 5866 5866 5866 5866 5865 5865 5865 5865 5864 5864 5863 5863 5862 5861 5861 5860 5859 5858 5857 5856 5855 5853 5852 5850 5848 5846 5844 5842
5857 5858 5858 5859 5860 5860 5861 5861 5862 5862 5862 5862 5863 5863 5863 5863 5863 5863 5863 5863 5862 5862 5862 5861 5861 5860 5860 5859 5858 5857 5856 5855 5854 5853 5852 5850 5849 5847 5846 5844 5842 5840 5837
5853 5854 5855 5856 5856 5857 5858 5858 5858 5859 5859 5859 5859 5860 5860 5860 5860 5860 5860 5859 5859 5859 5858 5858 5857 5857 5856 5855 5854 5853 5852 5851 5850 5848 5847 5846 5844 5842 5841 5839 5837 5835 5832
5848 5849 5850 5851 5852 5853 5853 5854 5854 5855 5855 5856 5856 5856 5856 5856 5856 5856 5856 5856 5855 5855 5854 5854 5853 5852 5852 5851 5850 5849 5848 5846 5845 5843 5842 5840 5839 5837 5835 5833 5831 5829 5827
5843 5844 5846 5847 5847 5848 5849 5849 5850 5851 5851 5851 5852 5852 5852 5851 5851 5851 5851 5851 5851 5850 5849 5849 5848 5847 5846 5846 5845 5844 5843 5841 5839 5838 5836 5834 5833 5831 5829 5827 5825 5823 5821
5837 5838 5840 5841 5842 5843 5844 5844 5845 5846 5846 5846 5847 5847 5846 5846 5846 5846 5846 5846 5845 5845 5844 5843 5843 5842 5841 5840 5839 5838 5837 5835 5834 5832 5830 5828 5826 5824 5822 5820 5818 5816 5814
5830 5832 5833 5835 5836 5837 5838 5839 5839 5840 5840 5840 5841 5841 5841 5841 5840 5840 5840 5840 5839 5839 5838 5837 5836 5835 5834 5833 5832 5831 5830 5828 5827 5825 5823 5821 5819 5817 5815 5812 5810 5808 5806
5822 5824 5826 5827 5828 5829 5831 5831 5832 5833 5833 5834 5834 5834 5834 5834 5834 5834 5833 5833 5832 5832 5831 5830 5829 5828 5827 5826 5825 5824 5823 5821 5819 5817 5815 5813 5811 5809 5806 5804 5802 5800 5798
5814 5816 5817 5819 5820 5821 5823 5823 5824 5825 5826 5827 5827 5827 5827 5826 5826 5826 5826 5825 5824 5824 5823 5822 5821 5820 5819 5818 5816 5815 5815 5814 5812 5809 5807 5805 5802 5800 5798 5796 5793 5791 5789
5804 5807 5808 5810 5811 5812 5813 5814 5816 5816 5817 5818 5818 5818 5818 5817 5817 5817 5817 5817 5816 5815 5815 5814 5812 5811 5810 5809 5807 5806 5805 5804 5803 5802 5799 5796 5793 5791 5789 5786 5784 5782 5779
5794 5796 5798 5799 5801 5802 5803 5805 5806 5807 5808 5809 5808 5808 5808 5808 5808 5807 5807 5807 5806 5806 5805 5804 5803 5801 5800 5799 5798 5796 5795 5793 5792 5792 5790 5787 5784 5781 5779 5776 5774 5771 5769
5783 5785 5787 5789 5790 5792 5793 5794 5795 5797 5798 5798 5798 5798 5798 5797 5797 5797 5797 5796 5796 5795 5794 5793 5792 5791 5790 5789 5787 5786 5784 5782 5780 5779 5779 5777 5774 5772 5768 5766 5763 5760 5758
5771 5774 5776 5778 5779 5781 5782 5783 5784 5785 5786 5786 5787 5787 5787 5786 5786 5786 5785 5785 5784 5783 5783 5781 5780 5779 5778 5777 5776 5774 5772 5771 5769 5767 5766 5765 5763 5761 5758 5755 5752 5749 5746